Wind_Speed
24 23 22 22 23 22 21 20 19 18 17 16 16 16 17 17 17 16 17 16 16 16 16 15 15 15 15 15 15 15 15 15 15 16 16 17 17 17 18 18 18 19 19 19
25 25 24 24 24 22 21 21 21 20 19 19 19 18 19 19 19 20 20 19 19 19 18 18 17 17 17 17 17 17 17 17 17 18 18 18 19 19 20 20 20 20 20 20
27 27 26 26 24 23 23 22 21 22 21 20 20 19 20 20 20 20 21 21 21 21 20 20 20 19 20 20 20 19 19 19 20 20 20 21 20 21 21 21 21 21 21 20
28 28 30 26 25 25 25 24 23 22 22 22 23 22 22 22 22 22 21 22 22 22 22 21 22 22 22 22 22 22 22 22 22 23 23 23 23 22 22 22 22 23 22 22
31 30 30 28 26 26 26 26 26 25 24 24 24 24 25 24 24 24 24 24 23 22 22 23 24 25 24 25 25 26 25 25 25 24 24 24 24 24 24 24 25 25 24 24
32 32 32 29 28 28 28 28 27 26 25 25 26 27 26 26 26 26 26 26 26 25 25 25 25 26 27 27 27 27 27 27 27 26 26 26 25 26 26 26 26 26 26 26
32 33 33 30 29 30 31 30 29 29 28 27 28 28 29 29 28 28 27 27 28 28 27 27 27 27 28 28 29 29 28 28 28 28 27 27 27 27 27 28 28 28 28 28
34 35 34 30 29 30 31 31 30 30 30 30 30 30 31 31 30 30 29 29 29 29 28 29 29 29 29 29 29 29 29 29 29 29 28 28 28 28 29 29 29 30 30 29
35 36 34 32 31 31 31 31 32 32 32 31 31 31 32 31 31 30 30 30 30 30 29 29 30 30 29 29 29 29 28 29 29 29 29 29 29 29 30 30 30 30 29 29
36 36 35 34 33 32 32 32 32 33 32 32 33 33 33 31 30 30 30 30 30 30 29 29 29 30 30 30 30 29 29 29 30 30 30 30 30 31 31 30 30 30 30 29
35 35 35 35 34 33 33 33 33 33 33 33 34 34 34 33 31 30 30 30 31 30 29 29 28 28 29 29 29 29 29 30 30 30 31 31 31 31 31 31 31 31 31 30
36 36 36 34 34 33 33 33 34 35 34 34 34 34 33 31 31 31 30 30 30 30 29 28 28 29 29 28 29 30 29 30 30 30 30 31 31 31 32 32 31 30 31 30
36 36 35 34 33 32 33 33 34 33 33 33 34 32 32 31 31 31 31 30 31 31 30 29 29 28 28 28 28 29 29 30 30 30 30 31 31 31 32 31 31 30 30 29
36 35 35 34 34 33 33 33 33 32 32 33 33 33 32 32 32 32 31 31 31 30 30 29 29 28 28 28 28 29 29 30 30 30 31 31 31 31 31 30 29 30 30 30
36 36 35 35 34 32 32 32 32 31 31 32 34 33 33 33 32 32 32 32 31 30 30 29 29 29 29 29 28 28 29 29 30 30 31 31 30 30 30 30 30 30 30 30
35 36 34 34 32 31 30 29 29 29 29 31 32 32 32 32 32 31 31 31 30 30 30 30 30 30 30 30 29 28 28 29 30 30 30 30 30 30 30 31 30 30 30 30
34 34 34 33 33 33 31 30 28 27 29 30 30 30 31 31 31 30 30 30 30 30 30 30 31 30 30 30 29 28 28 29 30 30 30 30 30 30 30 30 31 30 30 30
33 32 32 32 33 31 29 28 28 29 29 29 29 29 30 29 29 29 29 29 29 29 29 30 30 30 29 29 28 28 29 30 30 30 29 29 29 29 29 29 30 30 30 29
32 32 31 30 30 29 28 27 27 27 28 29 29 30 30 30 30 30 30 29 29 29 29 29 29 29 29 29 29 28 28 29 29 29 29 29 29 28 28 28 29 29 30 29
30 30 29 28 28 28 26 25 25 26 27 28 28 28 28 28 28 29 30 30 29 29 29 29 29 29 29 29 28 28 29 29 29 29 29 29 29 28 28 27 27 28 28 28
28 28 27 26 25 25 24 24 25 26 27 27 27 26 26 26 26 27 28 28 29 29 29 29 29 29 29 29 28 28 28 28 28 28 28 28 28 27 27 28 27 27 27 28
26 25 25 25 24 23 23 23 23 24 24 24 24 23 24 25 25 25 25 26 27 27 27 27 27 27 28 27 27 28 27 26 26 27 27 27 26 26 26 25 26 26 26 26
24 24 24 24 23 22 22 22 22 22 22 21 21 20 21 21 20 21 21 23 24 24 24 24 25 25 26 26 26 26 25 24 25 25 25 25 25 24 24 25 25 26 26 26
23 23 24 24 23 22 22 22 23 22 22 21 20 20 19 19 19 19 19 20 21 21 21 21 22 23 23 23 23 23 23 23 24 24 23 23 23 24 24 25 25 26 26 26
22 22 22 22 22 22 22 23 23 22 21 20 19 19 19 19 19 19 19 19 19 19 19 20 21 21 21 21 21 21 21 22 22 22 22 22 22 23 24 24 25 25 25 25
20 21 20 21 21 21 21 21 21 20 19 19 19 18 18 19 20 20 20 19 19 19 19 20 19 19 19 20 20 20 20 21 22 23 23 23 23 23 24 24 24 25 25 25
19 20 20 20 20 21 21 21 21 20 19 19 18 18 18 19 19 20 20 20 20 20 19 19 19 18 18 19 19 20 20 20 22 22 23 23 23 23 24 24 25 26 26 26
Wind_Direction
239 234 234 237 237 239 243 250 255 253 256 258 256 265 271 274 278 279 284 286 285 284 287 288 286 281 281 284 288 291 293 295 297 299 299 300 301 300 301 301 301 300 301 303
243 240 238 238 237 238 241 247 251 253 255 260 264 268 271 276 279 282 284 285 284 283 284 284 282 281 281 283 285 287 290 292 293 295 297 296 296 297 299 300 300 298 299 298
242 241 240 239 238 239 241 245 250 252 255 258 259 268 270 274 278 282 285 284 284 283 283 283 281 282 281 280 282 283 285 289 291 293 294 293 294 295 296 297 296 297 299 298
246 243 241 240 240 242 242 243 246 250 254 256 259 262 265 271 277 281 283 284 286 286 284 282 281 281 280 281 279 279 282 283 285 288 290 291 291 293 294 294 293 295 298 299
246 246 244 242 242 245 246 248 247 248 253 256 257 259 264 269 274 279 283 283 285 285 282 282 281 281 281 280 278 278 280 283 284 286 288 290 290 290 291 292 293 294 294 295
246 247 248 246 245 245 247 249 247 249 252 255 258 260 264 270 274 279 281 281 282 283 283 282 281 281 280 281 280 279 278 280 283 285 288 288 289 290 291 291 291 291 292 293
245 249 251 250 247 246 247 250 249 249 252 256 259 262 267 271 274 277 276 279 280 280 281 282 282 281 281 281 280 279 279 279 280 282 285 286 288 290 291 292 291 290 290 290
246 248 250 251 249 249 250 251 253 252 254 257 260 262 265 269 271 274 275 277 280 280 281 282 283 283 283 282 279 277 278 279 280 281 283 284 285 288 290 290 291 291 290 288
247 249 250 251 252 251 250 250 252 253 255 256 259 262 264 267 269 271 273 276 278 280 281 283 282 282 283 282 279 278 277 278 278 280 281 282 285 288 289 289 291 293 290 287
248 249 248 248 249 249 249 250 253 254 256 258 259 263 265 266 268 270 273 275 277 280 281 282 282 281 282 280 278 277 276 276 277 278 280 282 285 287 289 289 290 290 290 288
246 247 247 247 248 249 248 249 251 253 256 258 261 265 265 267 268 271 274 276 277 280 280 281 281 282 282 280 278 277 276 276 277 278 280 281 284 287 289 290 290 289 288 287
245 246 246 246 247 249 250 252 252 254 257 258 262 263 264 266 268 271 272 274 276 278 279 279 281 283 283 282 279 277 277 277 278 279 281 282 284 285 287 289 289 288 286 284
246 246 246 245 247 249 250 252 252 255 258 258 260 261 261 263 266 269 271 273 276 278 279 279 280 282 282 282 281 278 277 278 278 279 281 282 283 284 286 287 287 286 285 284
246 247 245 247 248 248 250 252 254 256 257 259 261 262 262 263 265 268 270 273 276 277 278 278 279 280 281 282 281 280 279 279 279 279 280 281 281 282 284 284 284 284 284 282
245 246 247 248 248 249 250 251 252 255 258 259 260 261 261 263 265 267 270 272 274 274 276 279 280 280 280 281 280 280 281 280 279 279 280 280 281 282 282 283 283 282 281 281
244 244 246 248 247 249 249 249 252 254 257 260 260 261 262 264 266 267 268 270 272 272 274 276 278 280 280 280 280 280 282 282 281 280 280 280 281 281 281 282 282 283 283 283
243 244 245 247 248 251 253 251 254 257 259 261 262 261 262 265 266 266 265 268 271 273 274 276 278 279 280 280 279 280 281 281 282 281 281 281 281 280 281 282 283 283 283 284
242 244 246 247 248 249 251 253 256 258 259 262 262 262 264 266 266 268 266 267 269 272 275 277 278 279 280 281 282 281 281 281 281 281 280 280 279 280 280 281 283 284 285 286
241 243 246 245 245 248 250 252 255 258 260 263 264 263 264 264 266 267 266 268 270 271 273 276 277 278 279 280 281 281 282 282 281 281 281 280 279 279 280 280 282 283 284 285
240 242 244 245 248 248 248 251 254 257 261 265 265 264 266 267 268 267 266 267 269 271 273 274 276 278 279 280 281 282 283 282 281 281 280 280 282 281 282 284 284 284 284 285
239 240 243 247 248 248 250 251 254 258 263 266 268 268 268 268 268 269 268 268 269 271 273 274 276 277 278 278 279 281 283 283 283 281 281 283 284 283 284 285 285 286 286 287
238 239 241 245 248 249 250 253 256 260 264 266 266 267 268 271 271 271 270 270 270 272 273 274 275 277 279 279 280 282 284 285 285 285 285 285 284 285 286 286 287 288 288 288
234 236 239 242 245 246 248 251 254 259 262 264 267 269 271 273 273 273 272 272 273 274 277 277 278 279 281 282 283 284 285 286 287 288 288 287 285 285 286 288 290 290 289 289
234 236 239 242 244 245 246 249 254 259 262 264 267 269 270 270 272 272 271 271 272 274 276 278 281 283 284 284 284 285 286 287 288 288 287 286 285 286 289 290 291 292 293 293
234 238 239 240 241 244 247 250 254 259 262 265 266 267 269 271 273 275 276 277 279 278 280 282 284 285 285 285 285 286 288 288 289 289 288 287 288 291 292 291 291 292 292 292
236 237 238 239 240 243 247 250 254 257 260 263 265 266 268 270 272 274 277 278 280 281 284 287 288 286 286 287 288 288 289 290 290 290 291 291 290 291 292 292 293 293 292 293
236 236 237 238 241 244 247 249 253 255 258 260 262 263 265 268 271 274 276 277 279 282 284 286 286 286 287 290 292 291 292 293 294 294 294 294 292 291 292 292 292 294 295 295
Height
5876 5879 5880 5881 5884 5886 5887 5888 5889 5890 5890 5892 5892 5893 5894 5894 5894 5893 5893 5893 5893 5892 5891 5890 5889 5890 5890 5889 5888 5887 5886 5885 5883 5882 5880 5879 5877 5875 5873 5871 5869 5867 5865 5863
5870 5873 5874 5876 5878 5880 5881 5883 5884 5885 5886 5887 5887 5888 5889 5889 5889 5888 5888 5888 5888 5887 5887 5886 5886 5885 5884 5883 5882 5882 5881 5880 5878 5877 5875 5874 5872 5870 5868 5866 5864 5862 5860 5858
5864 5866 5868 5870 5873 5874 5875 5877 5878 5879 5881 5882 5882 5883 5884 5884 5884 5883 5883 5883 5883 5882 5881 5881 5880 5879 5878 5877 5876 5876 5875 5874 5873 5871 5870 5868 5866 5864 5862 5860 5858 5856 5854 5852
5857 5860 5861 5866 5867 5868 5869 5871 5872 5873 5874 5875 5877 5878 5879 5879 5879 5878 5878 5878 5877 5876 5875 5875 5874 5873 5872 5870 5870 5870 5869 5868 5867 5865 5864 5862 5860 5858 5856 5854 5852 5850 5848 5846
5849 5851 5854 5858 5860 5861 5861 5863 5865 5866 5868 5869 5870 5872 5872 5873 5873 5872 5872 5871 5871 5870 5869 5868 5867 5867 5866 5864 5863 5863 5862 5861 5859 5858 5857 5855 5853 5851 5849 5847 5845 5843 5842 5840
5840 5842 5845 5851 5853 5853 5855 5856 5858 5859 5861 5862 5864 5865 5866 5867 5866 5865 5865 5864 5863 5862 5861 5861 5860 5859 5858 5857 5855 5855 5854 5853 5852 5851 5849 5848 5846 5844 5842 5840 5838 5836 5834 5832
5832 5834 5837 5842 5844 5846 5848 5850 5851 5852 5854 5855 5856 5858 5859 5859 5858 5858 5858 5857 5856 5855 5854 5853 5852 5851 5850 5849 5847 5847 5845 5844 5844 5843 5842 5840 5839 5837 5835 5833 5830 5828 5826 5824
5823 5825 5831 5833 5835 5838 5840 5841 5843 5844 5846 5847 5848 5849 5849 5850 5850 5850 5850 5850 5849 5848 5846 5846 5844 5843 5841 5840 5838 5837 5836 5836 5835 5834 5833 5832 5830 5829 5827 5824 5822 5820 5818 5816
5815 5819 5821 5823 5826 5828 5830 5832 5834 5835 5837 5839 5839 5840 5841 5841 5842 5842 5842 5841 5841 5840 5839 5837 5836 5834 5833 5831 5829 5828 5827 5827 5827 5826 5825 5824 5822 5821 5818 5816 5814 5811 5809 5807
5806 5808 5811 5814 5816 5819 5821 5824 5825 5827 5828 5830 5831 5832 5832 5833 5833 5833 5833 5833 5832 5831 5830 5829 5827 5825 5823 5822 5820 5820 5820 5819 5818 5817 5816 5815 5814 5812 5810 5808 5805 5803 5801 5800
5797 5799 5802 5805 5807 5810 5813 5815 5817 5818 5819 5821 5822 5822 5823 5824 5824 5824 5824 5824 5823 5822 5821 5820 5818 5817 5815 5813 5812 5811 5811 5810 5810 5809 5808 5807 5805 5804 5802 5800 5797 5795 5793 5792
5788 5791 5793 5797 5799 5801 5803 5806 5807 5809 5811 5812 5813 5813 5813 5814 5815 5815 5815 5815 5814 5814 5812 5811 5810 5808 5807 5805 5804 5803 5802 5802 5801 5800 5799 5798 5796 5795 5792 5790 5788 5786 5785 5783
5779 5782 5784 5787 5790 5792 5794 5796 5798 5800 5801 5802 5803 5804 5804 5805 5806 5806 5806 5806 5806 5805 5804 5803 5801 5800 5799 5797 5796 5795 5794 5793 5792 5791 5790 5789 5787 5785 5783 5781 5779 5777 5776 5774
5770 5773 5776 5778 5781 5783 5785 5787 5789 5790 5790 5792 5793 5794 5794 5795 5796 5797 5797 5797 5796 5795 5795 5793 5793 5792 5791 5789 5788 5786 5785 5784 5783 5782 5781 5780 5778 5776 5774 5773 5771 5769 5767 5766
5761 5764 5767 5769 5771 5773 5775 5777 5779 5780 5780 5782 5784 5784 5785 5786 5786 5787 5787 5787 5787 5786 5785 5784 5783 5783 5782 5780 5779 5778 5776 5775 5774 5773 5772 5770 5769 5767 5765 5763 5762 5760 5758 5756
5752 5755 5758 5760 5762 5764 5767 5769 5770 5771 5772 5773 5774 5774 5775 5776 5776 5776 5777 5777 5777 5777 5776 5775 5774 5773 5772 5771 5770 5769 5767 5766 5764 5763 5761 5760 5759 5757 5756 5754 5752 5750 5749 5747
5743 5745 5749 5752 5755 5757 5759 5761 5762 5763 5764 5765 5766 5766 5766 5766 5766 5766 5766 5767 5768 5767 5767 5766 5765 5764 5763 5762 5761 5760 5758 5757 5755 5753 5752 5751 5749 5748 5746 5744 5743 5741 5740 5738
5735 5737 5740 5743 5747 5749 5750 5752 5754 5755 5757 5758 5758 5758 5758 5758 5757 5757 5757 5758 5758 5758 5758 5757 5756 5755 5754 5752 5751 5750 5749 5747 5746 5744 5742 5741 5740 5738 5737 5735 5733 5732 5730 5728
5727 5729 5731 5734 5737 5739 5742 5744 5746 5748 5749 5750 5750 5750 5750 5750 5750 5749 5749 5749 5749 5749 5749 5748 5747 5746 5745 5743 5742 5741 5740 5738 5736 5735 5734 5732 5731 5729 5727 5725 5724 5722 5721 5719
5719 5721 5724 5727 5729 5732 5735 5736 5738 5740 5741 5742 5741 5741 5742 5741 5741 5741 5740 5740 5740 5740 5739 5739 5738 5737 5735 5734 5733 5732 5731 5729 5728 5727 5725 5723 5722 5720 5717 5716 5714 5713 5711 5710
5712 5715 5717 5720 5723 5725 5727 5729 5731 5732 5733 5733 5733 5733 5733 5733 5733 5732 5732 5731 5731 5730 5730 5729 5729 5728 5727 5726 5725 5724 5722 5720 5719 5718 5716 5715 5713 5711 5709 5707 5705 5703 5702 5700
5706 5708 5711 5714 5716 5719 5721 5722 5724 5725 5725 5725 5725 5724 5725 5725 5724 5724 5723 5722 5722 5721 5721 5720 5720 5719 5718 5717 5716 5715 5714 5712 5711 5709 5707 5706 5704 5703 5701 5698 5696 5695 5693 5692
5700 5702 5705 5708 5710 5712 5714 5716 5717 5718 5718 5718 5717 5717 5718 5717 5717 5716 5716 5715 5714 5714 5713 5713 5712 5711 5709 5708 5707 5706 5705 5704 5703 5701 5699 5698 5696 5694 5692 5691 5689 5687 5685 5684
5694 5696 5699 5701 5704 5706 5708 5709 5711 5711 5712 5711 5711 5711 5711 5711 5711 5710 5709 5708 5707 5707 5706 5705 5704 5703 5702 5701 5700 5699 5698 5696 5695 5693 5692 5690 5688 5687 5685 5683 5681 5679 5678 5676
5688 5690 5693 5695 5697 5700 5701 5703 5704 5704 5705 5705 5705 5705 5705 5705 5704 5704 5703 5702 5701 5700 5700 5699 5698 5697 5695 5694 5693 5692 5690 5689 5688 5686 5684 5682 5680 5679 5677 5675 5674 5672 5670 5668
5682 5684 5687 5689 5692 5693 5695 5696 5697 5698 5699 5699 5700 5700 5699 5699 5699 5698 5697 5697 5696 5695 5694 5693 5692 5690 5689 5688 5686 5685 5684 5682 5680 5679 5677 5675 5673 5671 5670 5668 5666 5664 5662 5660
5677 5679 5682 5684 5686 5687 5689 5690 5691 5692 5693 5694 5694 5694 5694 5694 5693 5693 5692 5691 5690 5689 5688 5687 5686 5685 5683 5682 5680 5679 5677 5675 5673 5671 5669 5667 5665 5664 5662 5660 5658 5656 5653 5651